Regional Weather Roundup
Issued by NWS

Home | Current Version | Previous Version | Graphics & Text | Print | Product List | Glossary On
Versions: 1 2 3 4 5 6 7 8 9 10 11 12 13 14 15 16 17 18 19 20 21 22 23 24 25 26 27 28 29 30 31 32 33 34 35 36 37 38 39 40 41 42 43 44 45 46 47 48 49 50
000
ASUS43 KLMK 161302
RWRKY
KENTUCKY REGIONAL WEATHER ROUNDUP
NATIONAL WEATHER SERVICE LOUISVILLE KY
900 AM EDT WED APR 16 2014

NOTE "FAIR" INDICATES FEW OR NO CLOUDS BELOW 12,000 FEET
WITH NO SIGNIFICANT WEATHER AND/OR OBSTRUCTIONS TO VISIBILITY.

KYZ001>023-026-027-061>063-070>075-161400-
WESTERN AND SOUTH CENTRAL KENTUCKY

CITY           SKY/WX    TMP DP  RH WIND       PRES   REMARKS
PADUCAH        SUNNY     39  28  64 SE8       30.32R WCI  33
HENDERSON      SUNNY     36  21  55 SE7       30.35R WCI  30
OWENSBORO      SUNNY     36  24  62 E13       30.36R WCI  27
HOPKINSVILLE   SUNNY     37  25  60 E12       30.33R WCI  30
BOWLING GREEN  SUNNY     35  23  61 E7        30.35R WCI  29
GLASGOW        NOT AVBL
$$

KYZ024-025-028>034-038-045-046-053-161400-
NORTH CENTRAL KENTUCKY

CITY           SKY/WX    TMP DP  RH WIND       PRES   REMARKS
LOUISVILLE/SDF MOSUNNY   36  19  50 E15G21    30.39R WCI  27
LOUISVILLE/LOU SUNNY     37  18  46 E10       30.40R WCI  30
FORT KNOX      MOSUNNY   33  21  60 E9        30.35S WCI  26
$$

KYZ035>037-039>044-047>052-055>060-089>105-161400-
NORTHEAST KENTUCKY

CITY           SKY/WX    TMP DP  RH WIND       PRES   REMARKS
LEXINGTON      SUNNY     34  17  50 E13       30.38S WCI  25
COVINGTON      MOSUNNY   33  15  47 E7        30.40R WCI  27
FRANKFORT      SUNNY     32  21  64 E12       30.38R WCI  23
$$

KYZ054-064>069-076>088-106>120-161400-
SOUTHEAST KENTUCKY

CITY           SKY/WX    TMP DP  RH WIND       PRES   REMARKS
JACKSON        SUNNY     32  20  61 CALM      30.37R
LONDON         SUNNY     33  19  56 E8        30.35R WCI  26
SOMERSET       NOT AVBL
MIDDLESBORO    NOT AVBL
MONTICELLO     SUNNY     42  31  65 E12       30.36F
$$




USA.gov is the U.S. government's official web portal to all federal, state and local government web resources and services.